Sevilla, Spain

8:15 PM CET on March 24, 2017 (GMT +0100)
San Pablo

Weather History for LEZL - November, 2012

Change the Weather History Date:

Thursday, November 8, 2012

  Actual Average Record
Temperature  
Mean Temperature 64 °F -  
Max Temperature 68 °F 64 °F 80 °F (2015)
Min Temperature 60 °F 47 °F 41 °F (2000)
Degree Days  
Heating Degree Days 1    
Growing Degree Days 14 (Base 50)    
Moisture  
Dew Point 60 °F    
Average Humidity 89    
Maximum Humidity 100    
Minimum Humidity 78    
Precipitation  
Precipitation 0.00 in - - ()
Sea Level Pressure  
Sea Level Pressure 29.96 in    
Wind  
Wind Speed 5 mph ()    
Max Wind Speed 17 mph    
Max Gust Speed -    
Visibility 5.5 miles    
Events Rain    
Averages and records for this station are not official NWS values.
T = Trace of Precipitation, MM = Missing Value Source: Averaged Metar Reports

Daily Weather History Graph

Daily Weather History Graph

Search for Another Location

Airport or City:

Trip Planner

Search our weather history database for the weather conditions in past years. The results will help you decide how hot, cold, wet, or windy it might be!

Date:

Astronomy

Nov. 08, 2012 Rise Set
Actual Time 7:55 AM CET 6:18 PM CET
Civil Twilight 7:28 AM CET 6:45 PM CET
Nautical Twilight 6:57 AM CET 7:16 PM CET
Astronomical Twilight 6:26 AM CET 7:47 PM CET
Moon 1:44 AM CET (11/8) 2:45 PM CET (11/8)
Length of Visible Light 11h 17m
Length of Day
10h 22m
Waning Crescent, 35% of the Moon is Illuminated
Nov 8
Waning Crescent
Nov 13
New
Nov 20
First Quarter
Nov 28
Full
Dec 6
Last Quarter

Hourly Weather History & Observations

Time (CET) Temp. Dew Point Humidity Pressure Visibility Wind Dir Wind Speed Gust Speed Precip Events Conditions
12:00 AM 62.6 °F 59.0 °F 88% 30.06 in 6.2 mi SE 8.1 mph - N/A Rain Light Rain
12:30 AM 62.6 °F 57.2 °F 82% 30.06 in 6.2 mi SSE 4.6 mph - N/A Rain Light Rain
1:00 AM 62.6 °F 57.2 °F 82% 30.06 in 5.0 mi SE 3.5 mph - N/A Rain Rain
4:30 AM 60.8 °F 57.2 °F 88% 29.95 in 6.2 mi ESE 16.1 mph - N/A Rain Rain
5:00 AM 62.6 °F 57.2 °F 82% 29.98 in 6.2 mi East 3.5 mph - N/A Rain Rain
5:30 AM 62.6 °F 57.2 °F 82% 29.98 in 6.2 mi ENE 8.1 mph - N/A Rain Light Rain
6:00 AM 60.8 °F 57.2 °F 88% 29.95 in 6.2 mi ENE 10.4 mph - N/A Rain Light Rain
6:30 AM 60.8 °F 57.2 °F 88% 29.98 in 6.2 mi North 8.1 mph - N/A Rain Rain
7:00 AM 60.8 °F 57.2 °F 88% 29.92 in 6.2 mi ENE 17.3 mph - N/A   Scattered Clouds
7:30 AM 60.8 °F 57.2 °F 88% 29.95 in 6.2 mi ENE 13.8 mph - N/A   Scattered Clouds
8:00 AM 62.6 °F 57.2 °F 82% 29.95 in 6.2 mi East 13.8 mph - N/A   Scattered Clouds
8:30 AM 62.6 °F 57.2 °F 82% 29.95 in 6.2 mi East 13.8 mph - N/A   Scattered Clouds
9:00 AM 62.6 °F 57.2 °F 82% 29.95 in 6.2 mi East 12.7 mph - N/A   Scattered Clouds
9:30 AM 62.6 °F 57.2 °F 82% 29.98 in 6.2 mi Calm Calm - N/A   Scattered Clouds
10:00 AM 62.6 °F 59.0 °F 88% 29.98 in 6.2 mi East 5.8 mph - N/A Rain Light Rain Showers
10:30 AM 62.6 °F 59.0 °F 88% 29.98 in 6.2 mi East 3.5 mph - N/A   Partly Cloudy
11:00 AM 62.6 °F 59.0 °F 88% 29.98 in 6.2 mi SSW 1.2 mph - N/A   Scattered Clouds
11:30 AM 64.4 °F 59.0 °F 83% 29.98 in 6.2 mi ESE 5.8 mph - N/A   Scattered Clouds
12:00 PM 66.2 °F 60.8 °F 83% 29.98 in 6.2 mi Calm Calm - N/A   Partly Cloudy
12:30 PM 66.2 °F 60.8 °F 83% 29.98 in 6.2 mi North 5.8 mph - N/A   Partly Cloudy
1:00 PM 66.2 °F 60.8 °F 83% 29.95 in 6.2 mi ENE 5.8 mph - N/A Rain Light Rain
1:30 PM 66.2 °F 60.8 °F 83% 29.92 in 6.2 mi NE 4.6 mph - N/A   Scattered Clouds
2:00 PM 68.0 °F 60.8 °F 78% 29.95 in 6.2 mi Variable 2.3 mph - N/A Rain Light Rain
2:30 PM 66.2 °F 60.8 °F 83% 29.95 in 5.0 mi Calm Calm - N/A Rain Light Rain
3:00 PM 64.4 °F 60.8 °F 88% 29.92 in 5.0 mi East 10.4 mph - N/A Rain Light Rain Showers
3:30 PM 64.4 °F 60.8 °F 88% 29.95 in 6.2 mi Variable 2.3 mph - N/A Rain Light Rain
4:00 PM 64.4 °F 62.6 °F 94% 29.92 in 6.2 mi East 5.8 mph - N/A Rain Light Rain
4:30 PM 64.4 °F 60.8 °F 88% 29.95 in 6.2 mi Variable 1.2 mph - N/A Rain Light Rain
4:36 PM 64.4 °F 60.8 °F 88% 29.95 in 2.5 mi Calm Calm - N/A Rain Rain Showers
5:30 PM 62.6 °F 60.8 °F 94% 29.95 in 6.2 mi NE 2.3 mph - N/A Rain Light Rain
5:43 PM 62.6 °F 60.8 °F 94% 29.95 in 1.9 mi Calm Calm - N/A Rain Rain
6:00 PM 62.6 °F 60.8 °F 94% 29.95 in 4.3 mi Variable 2.3 mph - N/A Rain Light Rain
6:30 PM 62.6 °F 60.8 °F 94% 29.92 in 2.5 mi Variable 1.2 mph - N/A Rain Rain Showers
7:00 PM 62.6 °F 60.8 °F 94% 29.95 in 3.7 mi Variable 1.2 mph - N/A Rain Rain
7:19 PM 62.6 °F 60.8 °F 94% 29.95 in 6.2 mi Calm Calm - N/A   Light Drizzle
7:30 PM 62.6 °F 60.8 °F 94% 29.95 in 6.2 mi WSW 1.2 mph - N/A   Light Drizzle
8:00 PM 62.6 °F 60.8 °F 94% 29.95 in 3.1 mi NNE 1.2 mph - N/A Rain Rain Showers
8:17 PM 62.6 °F 60.8 °F 94% 29.95 in 6.2 mi East 3.5 mph - N/A   Light Drizzle
8:30 PM 62.6 °F 60.8 °F 94% 29.95 in 6.2 mi NE 3.5 mph - N/A Rain Light Rain
9:00 PM 62.6 °F 60.8 °F 94% 29.95 in 6.2 mi Variable 1.2 mph - N/A   Drizzle
9:30 PM 62.6 °F 60.8 °F 94% 29.95 in 5.0 mi Calm Calm - N/A   Mostly Cloudy
10:00 PM 62.6 °F 60.8 °F 94% 29.95 in 4.3 mi ENE 1.2 mph - N/A   Light Drizzle
10:30 PM 62.6 °F 60.8 °F 94% 29.98 in 4.3 mi NE 1.2 mph - N/A   Scattered Clouds
11:00 PM 60.8 °F 60.8 °F 100% 29.98 in 4.3 mi Calm Calm - N/A Rain Rain
11:30 PM 60.8 °F 60.8 °F 100% 29.98 in 6.2 mi Calm Calm - N/A   Scattered Clouds